Weather History for Rayong, Thailand

Change the Weather History Date:

Friday, October 19, 2012

  Actual Average Record
Temperature  
Mean Temperature 83 °F -  
Max Temperature 91 °F 87 °F 93 °F (2005)
Min Temperature 75 °F 76 °F 75 °F (1997)
Cooling Degree Days 18    
Growing Degree Days 33 (Base 50)    
Moisture  
Dew Point 67 °F    
Average Humidity 61    
Maximum Humidity 78    
Minimum Humidity 36    
Precipitation  
Precipitation 0.00 in - - ()
Sea Level Pressure  
Sea Level Pressure 29.88 in    
Wind  
Wind Speed 3 mph ()    
Max Wind Speed 9 mph    
Max Gust Speed -    
Visibility 3.1 miles    
Events Thunderstorm    
Averages and records for this station are not official NWS values.
T = Trace of Precipitation, MM = Missing Value Source: Averaged Metar Reports

Daily Weather History Graph

Daily Weather History Graph

Search for Another Location

Airport:

Trip Planner

Search our weather history database for the weather conditions in past years. The results will help you decide how hot, cold, wet, or windy it might be!

Date:

Astronomy

Oct. 19, 2012 Rise Set
Actual Time 6:06 AM ICT 5:55 PM ICT
Civil Twilight 5:45 AM ICT 6:16 PM ICT
Nautical Twilight 5:20 AM ICT 6:41 PM ICT
Astronomical Twilight 4:55 AM ICT 7:06 PM ICT
Moon 9:44 AM ICT (10/19) 9:32 PM ICT (10/19)
Length of Visible Light 12h 31m
Length of Day
11h 48m
Waxing Crescent, 19% of the Moon is Illuminated
Oct 19
Waxing Crescent
Oct 22
First Quarter
Oct 30
Full
Nov 7
Last Quarter
Nov 14
New

Hourly Weather History & Observations

Time (ICT) Temp. Heat Index Dew Point Humidity Pressure Visibility Wind Dir Wind Speed Gust Speed Precip Events Conditions
12:00 AM 78.8 °F - 71.6 °F 78% 29.89 in 3.1 mi NE 3.5 mph - N/A   Mostly Cloudy
12:30 AM 77.0 °F - 69.8 °F 78% 29.89 in 3.1 mi NE 4.6 mph - N/A   Mostly Cloudy
1:00 AM 77.0 °F - 69.8 °F 78% 29.86 in 3.1 mi NNE 3.5 mph - N/A   Mostly Cloudy
1:30 AM 77.0 °F - 69.8 °F 78% 29.86 in 3.1 mi Calm Calm - N/A   Mostly Cloudy
2:30 AM 77.0 °F - 69.8 °F 78% 29.86 in 3.1 mi Calm Calm - N/A   Mostly Cloudy
4:00 AM 77.0 °F - 69.8 °F 78% 29.86 in 3.1 mi Calm Calm - N/A   Mostly Cloudy
4:30 AM 75.2 °F - 68.0 °F 78% 29.86 in 3.1 mi Calm Calm - N/A   Mostly Cloudy
5:00 AM 77.0 °F - 69.8 °F 78% 29.83 in 3.1 mi Calm Calm - N/A   Mostly Cloudy
6:00 AM 77.0 °F - 69.8 °F 78% 29.86 in 3.1 mi Calm Calm - N/A   Mostly Cloudy
6:30 AM 75.2 °F - 68.0 °F 78% 29.86 in 3.1 mi Calm Calm - N/A   Mostly Cloudy
7:00 AM 75.2 °F - 68.0 °F 78% 29.86 in 3.1 mi NE 3.5 mph - N/A   Mostly Cloudy
7:30 AM 77.0 °F - 68.0 °F 74% 29.89 in 3.1 mi NE 3.5 mph - N/A   Mostly Cloudy
8:00 AM 78.8 °F - 68.0 °F 69% 29.92 in 3.7 mi NE 3.5 mph - N/A   Mostly Cloudy
9:00 AM 86.0 °F 87.3 °F 64.4 °F 48% 29.92 in 3.1 mi NNE 3.5 mph - N/A   Haze
9:30 AM 86.0 °F 87.3 °F 64.4 °F 48% 29.92 in 3.1 mi NNE 3.5 mph - N/A   Haze
10:00 AM 87.8 °F 88.5 °F 62.6 °F 43% 29.92 in 3.1 mi NE 8.1 mph - N/A   Haze
10:30 AM 89.6 °F 89.5 °F 60.8 °F 38% 29.92 in 3.1 mi ENE 9.2 mph - N/A   Haze
11:00 AM 89.6 °F 90.1 °F 62.6 °F 40% 29.92 in 3.1 mi NE 4.6 mph - N/A   Haze
11:30 AM 91.4 °F 92.1 °F 62.6 °F 38% 29.89 in 3.1 mi East 3.5 mph - N/A   Haze
12:00 PM 91.4 °F 91.4 °F 60.8 °F 36% 29.89 in 3.1 mi SSE 3.5 mph - N/A   Haze
12:30 PM 91.4 °F 93.2 °F 64.4 °F 41% 29.86 in 3.1 mi South 3.5 mph - N/A   Haze
1:00 PM 91.4 °F 93.2 °F 64.4 °F 41% 29.86 in 3.1 mi South 4.6 mph - N/A   Haze
1:30 PM 91.4 °F 94.0 °F 66.2 °F 43% 29.86 in 3.1 mi South 4.6 mph - N/A   Haze
2:00 PM 91.4 °F 93.2 °F 64.4 °F 41% 29.83 in 3.1 mi SW 4.6 mph - N/A   Haze
2:30 PM 91.4 °F 94.0 °F 66.2 °F 43% 29.83 in 3.1 mi West 4.6 mph - N/A   Haze
3:00 PM 89.6 °F 92.2 °F 66.2 °F 46% 29.83 in 3.1 mi West 4.6 mph - N/A   Haze
3:30 PM 87.8 °F 93.8 °F 71.6 °F 58% 29.83 in 3.1 mi West 4.6 mph - N/A   Haze
4:00 PM 87.8 °F 93.8 °F 71.6 °F 58% 29.83 in 3.1 mi West 6.9 mph - N/A   Haze
4:30 PM 86.0 °F 91.8 °F 71.6 °F 62% 29.83 in 3.1 mi West 6.9 mph - N/A   Haze
5:00 PM 86.0 °F 91.8 °F 71.6 °F 62% 29.83 in 3.1 mi NNW 6.9 mph - N/A Thunderstorm Thunderstorm
5:30 PM 84.2 °F 90.9 °F 73.4 °F 70% 29.83 in 2.5 mi NNW 4.6 mph - N/A   Mostly Cloudy
6:00 PM 80.6 °F 82.7 °F 66.2 °F 61% 29.86 in 2.5 mi NE 6.9 mph - N/A   Mostly Cloudy
6:30 PM 80.6 °F 81.8 °F 62.6 °F 54% 29.86 in 3.1 mi North 4.6 mph - N/A   Haze
7:00 PM 80.6 °F 81.5 °F 60.8 °F 51% 29.86 in 3.1 mi Calm Calm - N/A   Haze
7:30 PM 82.4 °F 83.9 °F 64.4 °F 54% 29.86 in 3.1 mi Calm Calm - N/A   Haze
8:00 PM 80.6 °F 82.7 °F 66.2 °F 61% 29.89 in 3.1 mi Calm Calm - N/A   Haze
8:30 PM 80.6 °F 82.7 °F 66.2 °F 61% 29.89 in 3.7 mi Calm Calm - N/A   Mostly Cloudy
9:00 PM 80.6 °F 83.2 °F 68.0 °F 65% 29.92 in 3.1 mi Calm Calm - N/A   Mostly Cloudy
9:30 PM 78.8 °F - 68.0 °F 69% 29.92 in 3.1 mi Calm Calm - N/A   Mostly Cloudy
10:00 PM 78.8 °F - 68.0 °F 69% 29.92 in 3.1 mi Calm Calm - N/A   Mostly Cloudy
10:30 PM 78.8 °F - 68.0 °F 69% 29.92 in 3.1 mi Calm Calm - N/A   Mostly Cloudy
11:00 PM 78.8 °F - 68.0 °F 69% 29.92 in 3.1 mi Calm Calm - N/A   Mostly Cloudy
11:30 PM 78.8 °F - 69.8 °F 74% 29.92 in 3.1 mi Calm Calm - N/A   Mostly Cloudy